[[{"header":{"parameterUnit":"m.s-1","parameterCategory":1,"la1":30.2991,"la2":30.254,"lo1":-89.0895,"lo2":-89.0444,"dy":0.0017,"dx":0.0017,"nx":28,"ny":28,"refTime":"2023-08-03T21:00:00:Z","depth":0,"parameterNumber":2,"parameterNumberName":"U-component_of_WINDS"},"data":[0,0,0,0,0,0,0,0,0,0,0,0,0,0,0,0,0,0,0,0,0,0,0,0,0,0,0,0,0,0,0,0,0,0,0,0,0,0,0,0,0,0,0,0,0,0,0,0,0,0,0,0,0,0,0,0,0,0,1.4739,1.474,0,1.4905,1.4907,1.4909,1.496,1.4959,1.4958,1.4957,1.5127,1.5132,1.5137,0,0,0,0,0,0,0,0,0,0,0,0,0,1.4464,1.4469,1.4738,1.4741,1.4743,1.4904,1.4907,1.4909,1.496,1.4959,1.4958,1.4957,1.5125,1.5131,1.5138,0,0,0,0,0,0,0,0,0,0,0,0,0,1.4602,1.447,1.4738,1.4788,1.4794,1.4904,1.4907,1.491,1.496,1.4959,1.4958,1.4956,1.5123,1.5131,1.5139,1.5212,0,0,1.5163,1.5166,0,0,0,0,0,0,0,0,1.4594,1.4612,1.4778,1.4784,1.4791,1.491,1.4872,1.5011,1.496,1.4897,1.4957,1.4956,1.5056,1.5069,1.5103,1.522,1.5227,1.5163,1.5168,1.5172,1.5174,0,0,0,0,0,0,0,1.4584,1.4605,1.4804,1.4781,1.4789,1.4801,1.4819,1.4899,1.4981,1.4902,1.4906,1.4925,1.5059,1.5095,1.5107,1.5229,1.5163,1.517,1.5175,1.5178,1.5413,1.5415,0,0,0,0,0,0,1.4567,1.4597,1.4799,1.4809,1.4688,1.4807,1.4827,1.4873,1.498,1.4995,1.4926,1.4927,1.5082,1.5098,1.5113,1.5205,1.5172,1.5179,1.5184,1.5412,1.5414,1.5415,0,0,0,0,0,0,1.456,1.4584,1.4792,1.4704,1.4732,1.4813,1.4864,1.4877,1.4913,1.4998,1.5013,1.4948,1.5082,1.5102,1.5187,1.5212,1.5183,1.519,1.541,1.5413,1.5415,1.539,0,0,0,0,0,0,1.4552,1.4582,1.461,1.4704,1.4736,1.4863,1.4866,1.4881,1.4927,1.493,1.5023,1.5037,1.5083,1.5175,1.5194,1.5222,1.5196,1.5408,1.5411,1.5414,1.5389,1.5391,1.5393,0,0,0,0,0,1.4542,1.4597,1.4612,1.4636,1.4774,1.4864,1.4882,1.4934,1.4929,1.4958,1.5013,1.5034,1.5206,1.5183,1.5206,1.5236,1.5407,1.541,1.5414,1.5388,1.5391,1.5393,0,0,0,0,0,0,1.4504,1.461,1.4628,1.4714,1.478,1.4873,1.4911,1.4935,1.5003,1.5003,1.5064,1.5084,1.5164,1.5209,1.5181,1.5312,1.5307,1.5315,1.528,1.5283,1.5285,1.5272,1.5202,0,0,0,0,0,1.4505,1.457,1.466,1.4727,1.4759,1.483,1.4871,1.4905,1.4975,1.5003,1.5064,1.5131,1.52,1.5244,1.5313,1.5396,1.5416,1.5428,1.543,1.5431,1.5437,1.5484,1.549,1.5427,1.5427,1.5426,0,0,1.4509,1.4575,1.4612,1.4721,1.4776,1.4841,1.4853,1.4921,1.497,1.5013,1.5096,1.5143,1.5222,1.5306,1.5346,1.5346,1.5459,1.5436,1.5436,1.5442,1.5488,1.5494,1.5499,1.5429,1.5428,1.5428,0,0,1.4549,1.4606,1.4669,1.4723,1.4806,1.4852,1.4867,1.4957,1.4989,1.5074,1.5107,1.5166,1.5284,1.5339,1.5382,1.5442,1.5464,1.5463,1.5473,1.5518,1.5523,1.5527,1.5548,1.5555,1.5469,1.5468,1.5468,0,1.4543,1.4643,1.4697,1.4765,1.4811,1.4853,1.4916,1.4967,1.5067,1.5098,1.5097,1.5245,1.5301,1.5398,1.5412,1.5446,1.5465,1.5452,1.5518,1.5523,1.5528,1.5548,1.5556,1.5468,1.5468,1.5468,1.5468,0,1.4631,1.47,1.4741,1.4837,1.4888,1.4953,1.5016,1.5061,1.509,1.5137,1.5222,1.5291,1.5373,1.5399,1.5428,1.55,1.5497,1.5506,1.5502,1.5532,1.5552,1.5561,1.5467,1.5467,1.5467,1.5467,0,0,1.4651,1.4777,1.479,1.4834,1.4929,1.4983,1.5049,1.513,1.5167,1.5235,1.5291,1.539,1.5399,1.5448,1.5484,1.5523,1.5565,1.5527,1.553,1.5531,1.5647,1.5639,1.5647,1.558,1.5582,1.5583,1.564,0,1.4703,1.4823,1.4874,1.4971,1.5034,1.5075,1.5133,1.5197,1.5242,1.5302,1.5352,1.542,1.5427,1.5456,1.5497,1.5551,1.5589,1.5548,1.5633,1.5635,1.5611,1.5658,1.565,1.57,1.5648,1.5649,1.5651,0,1.4779,1.4847,1.495,1.5036,1.5065,1.5116,1.5194,1.5251,1.5324,1.5354,1.5408,1.5442,1.5512,1.5504,1.5602,1.5573,1.5611,1.5642,1.5646,1.5655,1.5644,1.5667,1.5717,1.5724,1.5664,1.5663,1.5662,0,1.4782,1.49,1.4976,1.5013,1.5115,1.515,1.5194,1.5266,1.5311,1.5379,1.5409,1.5484,1.5525,1.5583,1.5636,1.5625,1.5728,1.5724,1.5754,1.5753,1.5773,1.5771,1.5829,1.5799,1.5799,1.5799,1.5799,0,1.4833,1.4894,1.4979,1.5026,1.5096,1.5153,1.522,1.5267,1.5331,1.5387,1.5428,1.548,1.5547,1.5608,1.565,1.5723,1.5742,1.5768,1.5778,1.5764,1.576,1.5789,1.5786,1.5801,1.58,1.58,1.58,0,1.4848,1.4907,1.4993,1.5084,1.5108,1.5155,1.5232,1.5279,1.5325,1.5396,1.5416,1.549,1.5563,1.5622,1.5718,1.5746,1.5823,1.5835,1.5798,1.5804,1.583,1.5826,1.5907,1.592,1.5882,1.5882,1.5882,0,1.4876,1.4924,1.502,1.5061,1.5104,1.517,1.5216,1.5275,1.5321,1.5407,1.5444,1.552,1.5584,1.5699,1.5761,1.5834,1.5848,1.5871,1.5859,1.5843,1.5847,1.5843,1.5848,1.5872,1.5872,1.5872,1.5872,0,1.492,1.4947,1.5013,1.5088,1.5143,1.5205,1.5268,1.5299,1.5369,1.5419,1.5494,1.5544,1.5642,1.5717,1.5796,1.5842,1.5868,1.5876,1.5886,1.5872,1.5848,1.586,1.5801,1.5873,1.5873,1.5873,1.5873,1.5873,1.4942,1.4987,1.5061,1.5132,1.5186,1.5244,1.5292,1.5345,1.5409,1.5493,1.5524,1.5601,1.5672,1.5782,1.5828,1.5889,1.5891,1.5907,1.5911,1.5913,1.5911,1.5839,1.5904,1.5904,1.5904,1.5904,1.5904,0,1.4987,1.5037,1.5102,1.519,1.5245,1.5266,1.5337,1.5382,1.545,1.5514,1.5577,1.5663,1.5736,1.5803,1.5879,1.5915,1.5929,1.5933,1.593,1.594,1.5905,1.5888,1.592,1.592,1.592,1.592,1.592,1.592,1.5017,1.5093,1.5129,1.5232,1.5281,1.5357,1.5396,1.5449,1.5501,1.5596,1.5656,1.57,1.5766,1.5846,1.5914,1.5932,1.5958,1.5958,1.5979,1.5945,1.5943,1.594,1.5924,1.5963,1.5963,1.6009,1.6009,1.6009]},{"header":{"parameterUnit":"m.s-1","parameterCategory":1,"la1":30.2991,"la2":30.254,"lo1":-89.0895,"lo2":-89.0444,"dy":0.0017,"dx":0.0017,"nx":28,"ny":28,"refTime":"2023-08-03T21:00:00:Z","depth":0,"parameterNumber":3,"parameterNumberName":"V-component_of_WINDS"},"data":[0,0,0,0,0,0,0,0,0,0,0,0,0,0,0,0,0,0,0,0,0,0,0,0,0,0,0,0,0,0,0,0,0,0,0,0,0,0,0,0,0,0,0,0,0,0,0,0,0,0,0,0,0,0,0,0,0,0,6.1223,6.1222,0,6.1162,6.1161,6.116,6.1049,6.1047,6.1045,6.1042,6.0981,6.0982,6.0982,0,0,0,0,0,0,0,0,0,0,0,0,0,6.1246,6.1246,6.1223,6.1222,6.1221,6.1162,6.1161,6.116,6.1049,6.1047,6.1044,6.1042,6.0981,6.0982,6.0982,0,0,0,0,0,0,0,0,0,0,0,0,0,6.1216,6.1246,6.1223,6.1159,6.1152,6.1162,6.1161,6.116,6.105,6.1046,6.1043,6.104,6.0981,6.0982,6.0982,6.105,0,0,6.0984,6.0984,0,0,0,0,0,0,0,0,6.1217,6.1215,6.1169,6.1163,6.1156,6.1109,6.1146,6.1123,6.1051,6.1089,6.1042,6.1039,6.1027,6.1023,6.1019,6.1047,6.1044,6.0984,6.0984,6.0985,6.0985,0,0,0,0,0,0,0,6.122,6.1217,6.1199,6.1168,6.1161,6.1134,6.1126,6.1141,6.1077,6.1085,6.1077,6.1071,6.1023,6.1019,6.1017,6.1043,6.0984,6.0984,6.0985,6.0985,6.1123,6.1127,0,0,0,0,0,0,6.1231,6.1219,6.12,6.1197,6.1179,6.1136,6.1127,6.1128,6.1076,6.1065,6.1074,6.1066,6.1019,6.1016,6.1014,6.1089,6.0985,6.0985,6.0985,6.112,6.1124,6.1128,0,0,0,0,0,0,6.1232,6.123,6.1203,6.1206,6.12,6.1139,6.1141,6.1128,6.1124,6.1067,6.1056,6.1082,6.1017,6.1013,6.1041,6.1085,6.0985,6.0986,6.1116,6.1121,6.1126,6.124,0,0,0,0,0,0,6.1233,6.1231,6.1256,6.1207,6.12,6.1231,6.1143,6.1129,6.1125,6.1114,6.1072,6.1061,6.1014,6.1041,6.1042,6.1084,6.0986,6.1112,6.1118,6.1124,6.1232,6.1248,6.1262,0,0,0,0,0,6.1234,6.1291,6.1258,6.1256,6.123,6.1234,6.123,6.1174,6.1129,6.1153,6.1117,6.1063,6.1081,6.1045,6.1045,6.1088,6.1109,6.1117,6.1124,6.1225,6.1245,6.1262,0,0,0,0,0,0,6.1347,6.1283,6.1246,6.1288,6.1267,6.1215,6.1244,6.1197,6.1188,6.1179,6.111,6.1101,6.1138,6.1116,6.1078,6.1151,6.1086,6.1094,6.1164,6.1182,6.1197,6.1201,6.0987,0,0,0,0,0,6.1377,6.1385,6.1329,6.1372,6.1363,6.1306,6.1306,6.1264,6.124,6.1231,6.1196,6.1175,6.1176,6.1178,6.1175,6.1229,6.1218,6.1259,6.1274,6.1286,6.1294,6.132,6.1337,6.1152,6.1152,6.1152,0,0,6.1438,6.1404,6.1414,6.1394,6.1372,6.1383,6.1299,6.1314,6.1321,6.1233,6.1257,6.1231,6.1203,6.1245,6.1261,6.1227,6.1342,6.1296,6.1307,6.1307,6.1329,6.1347,6.1363,6.1158,6.1157,6.1156,0,0,6.1555,6.1531,6.1563,6.1544,6.1513,6.1474,6.1483,6.1438,6.1417,6.144,6.1374,6.1382,6.1385,6.1368,6.136,6.1471,6.1421,6.1473,6.1551,6.1577,6.1592,6.1604,6.1643,6.1658,6.148,6.1481,6.1481,0,6.1635,6.1648,6.1587,6.1605,6.1598,6.1519,6.1552,6.1536,6.1507,6.1504,6.1467,6.1468,6.1444,6.148,6.1507,6.1503,6.151,6.1476,6.1595,6.1607,6.1617,6.1654,6.1669,6.1487,6.1486,6.1486,6.1485,0,6.1748,6.1758,6.1788,6.176,6.1757,6.1783,6.1726,6.1731,6.169,6.1656,6.1681,6.1649,6.1638,6.1644,6.1605,6.1674,6.1654,6.1607,6.1541,6.1642,6.1675,6.1689,6.1496,6.1494,6.1492,6.149,0,0,6.1933,6.1872,6.1884,6.187,6.1831,6.1837,6.186,6.1849,6.1854,6.1837,6.1854,6.1858,6.1814,6.1805,6.1763,6.1787,6.1876,6.1736,6.1734,6.1762,6.195,6.1985,6.2002,6.1843,6.1845,6.1847,6.1952,0,6.2041,6.2075,6.2021,6.2067,6.2076,6.2001,6.2021,6.1999,6.1968,6.1971,6.1937,6.1941,6.1883,6.1877,6.1897,6.1861,6.1913,6.1853,6.1858,6.1859,6.1866,6.202,6.2057,6.2157,6.1965,6.1967,6.1969,0,6.217,6.2159,6.2206,6.2164,6.2165,6.2184,6.2169,6.2173,6.2147,6.2123,6.2113,6.2064,6.2083,6.202,6.2046,6.2007,6.2006,6.1989,6.1991,6.1989,6.1919,6.202,6.2188,6.2203,6.1989,6.1987,6.1986,0,6.2299,6.2296,6.2323,6.2315,6.2266,6.2281,6.2261,6.2232,6.2229,6.2217,6.2215,6.2206,6.2201,6.2195,6.2145,6.2104,6.2177,6.2109,6.2157,6.2158,6.2174,6.2174,6.2343,6.2176,6.2176,6.2176,6.2176,0,6.2424,6.2456,6.2381,6.2398,6.2432,6.237,6.2405,6.2378,6.2353,6.2364,6.2299,6.2311,6.2244,6.2248,6.2209,6.2236,6.2235,6.2216,6.2205,6.2221,6.2223,6.2218,6.221,6.218,6.2179,6.2178,6.2177,0,6.2574,6.2524,6.255,6.2502,6.249,6.2517,6.2476,6.249,6.2456,6.247,6.247,6.2416,6.2418,6.2367,6.2359,6.2332,6.2377,6.2354,6.2385,6.2378,6.2427,6.2423,6.2599,6.2618,6.244,6.2442,6.2444,0,6.2656,6.2679,6.2633,6.2636,6.2619,6.2624,6.2621,6.2561,6.2561,6.2533,6.2551,6.2547,6.2541,6.2548,6.2508,6.2502,6.2477,6.2539,6.2476,6.2491,6.2477,6.2476,6.2478,6.2552,6.2555,6.2557,6.2558,0,6.2808,6.2782,6.2779,6.2769,6.2767,6.2755,6.274,6.2746,6.2681,6.2684,6.2685,6.268,6.2672,6.2669,6.2655,6.2635,6.2586,6.2579,6.2589,6.2605,6.2622,6.2613,6.242,6.2574,6.2573,6.2572,6.2571,6.257,6.2925,6.2941,6.2912,6.2911,6.2894,6.2881,6.2892,6.2858,6.2858,6.2846,6.2811,6.2819,6.2792,6.2768,6.2753,6.2758,6.2727,6.2742,6.2746,6.2751,6.276,6.2622,6.2755,6.2755,6.2754,6.2754,6.2753,0,6.3072,6.305,6.305,6.303,6.303,6.2984,6.2964,6.2967,6.2974,6.2954,6.2949,6.295,6.2948,6.2908,6.29,6.2912,6.2889,6.2912,6.291,6.2906,6.2788,6.2779,6.293,6.293,6.293,6.293,6.293,6.293,6.3149,6.3174,6.3145,6.3162,6.3139,6.3145,6.3138,6.3126,6.3109,6.3113,6.3111,6.3085,6.3056,6.3046,6.3042,6.303,6.303,6.3061,6.3042,6.2932,6.2914,6.2898,6.2889,6.3061,6.3062,6.3159,6.316,6.3161]}]]